Location: Tierra del Sol
(32.6128°N, 116.3319°W)
Time: 06:20:14
(UTC-07:00)

Envisat - Pass Details

Date: 12 October 2017
Orbit: 764 x 766 km, 98.2° (Epoch: 17 October)

Event Time Altitude Azimuth Distance (km) Brightness Sun altitude
Exits shadow 20:14:11 22° 15° (NNE) 1,619 4.6 -25.7°
Drops below altitude 10° 20:16:07 10° 3° (N) 2,305 5.5 -26.2°
Sets 20:18:31 0° 357° (N) 3,234 6.4 -26.7°
